| time (UTC) | temp F | wind direction | speed MPH | gust MPH | rain 1hr in | rain 24hr in | rain mn in | humidity % | barometer mb |
| 20260506203518 | 70 | 238 | 2.0 | 3.0 | 0.00 | 0.00 | 0.00 | 60 | 1028.0 |
| 20260506203117 | 70 | 240 | 2.0 | 3.0 | 0.00 | 0.00 | 0.00 | 60 | 1027.9 |
| 20260506202716 | 70 | 356 | 1.0 | 3.0 | 0.00 | 0.00 | 0.00 | 60 | 1027.9 |
| 20260506202315 | 70 | 4 | 1.0 | 4.0 | 0.00 | 0.00 | 0.00 | 60 | 1027.9 |
| 20260506201914 | 70 | 4 | 2.0 | 4.0 | 0.00 | 0.00 | 0.00 | 60 | 1027.9 |
| 20260506201513 | 70 | 346 | 0.0 | 3.0 | 0.00 | 0.00 | 0.00 | 60 | 1027.9 |
| 20260506201112 | 70 | 324 | 0.0 | 4.0 | 0.00 | 0.00 | 0.00 | 60 | 1027.9 |
| 20260506200711 | 69 | 36 | 1.0 | 2.0 | 0.00 | 0.00 | 0.00 | 61 | 1028.0 |
| 20260506200310 | 69 | 21 | 0.0 | 3.0 | 0.00 | 0.00 | 0.00 | 61 | 1028.0 |
| 20260506195909 | 69 | 32 | 1.0 | 2.0 | 0.00 | 0.00 | 0.00 | 61 | 1028.0 |
| 20260506195508 | 69 | 66 | 1.0 | 3.0 | 0.00 | 0.00 | 0.00 | 61 | 1028.0 |
| 20260506195107 | 69 | 8 | 2.0 | 3.0 | 0.00 | 0.00 | 0.00 | 61 | 1028.0 |
| 20260506194707 | 68 | 355 | 1.0 | 3.0 | 0.00 | 0.00 | 0.00 | 61 | 1028.0 |
| 20260506194306 | 68 | 19 | 2.0 | 4.0 | 0.00 | 0.00 | 0.00 | 61 | 1028.0 |
| 20260506193905 | 68 | 8 | 0.0 | 3.0 | 0.00 | 0.00 | 0.00 | 62 | 1028.1 |
| 20260506193504 | 68 | 12 | 1.0 | 3.0 | 0.00 | 0.00 | 0.00 | 62 | 1028.1 |
| 20260506193103 | 67 | 15 | 0.0 | 5.0 | 0.00 | 0.00 | 0.00 | 62 | 1028.1 |
| 20260506192702 | 67 | 30 | 2.0 | 4.0 | 0.00 | 0.00 | 0.00 | 62 | 1028.2 |
| 20260506192301 | 67 | 12 | 2.0 | 3.0 | 0.00 | 0.00 | 0.00 | 62 | 1028.2 |
| 20260506191900 | 66 | 1 | 1.0 | 5.0 | 0.00 | 0.00 | 0.00 | 63 | 1028.1 |
| 20260506191459 | 66 | 53 | 3.0 | 3.0 | 0.00 | 0.00 | 0.00 | 63 | 1028.1 |
| 20260506191058 | 65 | 322 | 1.0 | 3.0 | 0.00 | 0.00 | 0.00 | 63 | 1028.1 |
| 20260506190657 | 65 | 40 | 3.0 | 5.0 | 0.00 | 0.00 | 0.00 | 62 | 1028.2 |
| 20260506190256 | 65 | 5 | 1.0 | 4.0 | 0.00 | 0.00 | 0.00 | 63 | 1028.2 |
| 20260506185855 | 65 | 321 | 2.0 | 4.0 | 0.00 | 0.00 | 0.00 | 63 | 1028.2 |
| 20260506185454 | 65 | 43 | 2.0 | 4.0 | 0.00 | 0.00 | 0.00 | 63 | 1028.1 |
| 20260506185053 | 65 | 2 | 3.0 | 4.0 | 0.00 | 0.00 | 0.00 | 63 | 1028.2 |
| 20260506184653 | 65 | 329 | 2.0 | 4.0 | 0.00 | 0.00 | 0.00 | 64 | 1028.2 |
| 20260506184252 | 65 | 353 | 2.0 | 5.0 | 0.00 | 0.00 | 0.00 | 63 | 1028.2 |
| 20260506183851 | 65 | 355 | 4.0 | 5.0 | 0.00 | 0.00 | 0.00 | 64 | 1028.2 |
| 20260506183450 | 65 | 3 | 5.0 | 5.0 | 0.00 | 0.00 | 0.00 | 64 | 1028.3 |
| 20260506183049 | 65 | 354 | 1.0 | 5.0 | 0.00 | 0.00 | 0.00 | 64 | 1028.3 |
| 20260506182648 | 65 | 7 | 3.0 | 4.0 | 0.00 | 0.00 | 0.00 | 64 | 1028.2 |
| 20260506182247 | 65 | 40 | 3.0 | 4.0 | 0.00 | 0.00 | 0.00 | 65 | 1028.3 |
| 20260506181846 | 65 | 351 | 1.0 | 3.0 | 0.00 | 0.00 | 0.00 | 65 | 1028.3 |
| 20260506181445 | 65 | 353 | 1.0 | 4.0 | 0.00 | 0.00 | 0.00 | 65 | 1028.4 |
| 20260506181044 | 65 | 343 | 3.0 | 6.0 | 0.00 | 0.00 | 0.00 | 66 | 1028.3 |
| 20260506180644 | 64 | 12 | 2.0 | 4.0 | 0.00 | 0.00 | 0.00 | 66 | 1028.4 |
| 20260506180243 | 64 | 351 | 1.0 | 3.0 | 0.00 | 0.00 | 0.00 | 66 | 1028.5 |
| 20260506175842 | 64 | 5 | 0.0 | 4.0 | 0.00 | 0.00 | 0.00 | 66 | 1028.3 |
| 20260506175441 | 64 | 11 | 3.0 | 4.0 | 0.00 | 0.00 | 0.00 | 66 | 1028.3 |
| 20260506175040 | 64 | 354 | 1.0 | 4.0 | 0.00 | 0.00 | 0.00 | 67 | 1028.2 |
| 20260506174639 | 63 | 343 | 2.0 | 4.0 | 0.00 | 0.00 | 0.00 | 67 | 1028.3 |
| 20260506174238 | 63 | 0 | 2.0 | 4.0 | 0.00 | 0.00 | 0.00 | 67 | 1028.2 |
| 20260506173837 | 63 | 358 | 2.0 | 5.0 | 0.00 | 0.00 | 0.00 | 67 | 1028.1 |
| 20260506173436 | 63 | 1 | 2.0 | 4.0 | 0.00 | 0.00 | 0.00 | 68 | 1028.2 |
| 20260506173035 | 62 | 107 | 0.0 | 0.0 | 0.00 | 0.00 | 0.00 | 68 | 1028.2 |
| 20260506172640 | 62 | 11 | 2.0 | 3.0 | 0.00 | 0.00 | 0.00 | 68 | 1028.1 |
| 20260506172239 | 62 | 358 | 3.0 | 4.0 | 0.00 | 0.00 | 0.00 | 68 | 1028.1 |
| 20260506171838 | 61 | 19 | 1.0 | 4.0 | 0.00 | 0.00 | 0.00 | 68 | 1028.1 |
| 20260506171437 | 61 | 338 | 3.0 | 4.0 | 0.00 | 0.00 | 0.00 | 68 | 1028.1 |
| 20260506171036 | 61 | 5 | 1.0 | 3.0 | 0.00 | 0.00 | 0.00 | 68 | 1028.1 |
| 20260506170635 | 61 | 356 | 2.0 | 3.0 | 0.00 | 0.00 | 0.00 | 68 | 1028.1 |
| 20260506170234 | 60 | 13 | 1.0 | 5.0 | 0.00 | 0.00 | 0.00 | 68 | 1028.1 |
| 20260506165833 | 60 | 22 | 5.0 | 5.0 | 0.00 | 0.00 | 0.00 | 68 | 1028.1 |
| 20260506165432 | 60 | 359 | 1.0 | 7.0 | 0.00 | 0.00 | 0.00 | 68 | 1028.0 |
| 20260506165031 | 60 | 40 | 5.0 | 7.0 | 0.00 | 0.00 | 0.00 | 68 | 1027.9 |
| 20260506164631 | 60 | 22 | 3.0 | 5.0 | 0.00 | 0.00 | 0.00 | 69 | 1027.8 |
| 20260506164230 | 60 | 358 | 1.0 | 3.0 | 0.00 | 0.00 | 0.00 | 69 | 1027.9 |
| 20260506163829 | 59 | 351 | 2.0 | 3.0 | 0.00 | 0.00 | 0.00 | 69 | 1027.8 |
| 20260506163428 | 59 | 348 | 2.0 | 3.0 | 0.00 | 0.00 | 0.00 | 70 | 1027.8 |
| 20260506163027 | 58 | 320 | 2.0 | 4.0 | 0.00 | 0.00 | 0.00 | 70 | 1027.9 |
| 20260506162626 | 58 | 340 | 2.0 | 5.0 | 0.00 | 0.00 | 0.00 | 70 | 1027.9 |
| 20260506162225 | 58 | 8 | 3.0 | 5.0 | 0.00 | 0.00 | 0.00 | 70 | 1027.8 |
| 20260506161824 | 58 | 359 | 2.0 | 5.0 | 0.00 | 0.00 | 0.00 | 70 | 1027.9 |
| 20260506161423 | 58 | 356 | 1.0 | 6.0 | 0.00 | 0.00 | 0.00 | 71 | 1027.9 |
| 20260506161022 | 58 | 345 | 3.0 | 5.0 | 0.00 | 0.00 | 0.00 | 73 | 1027.9 |
| 20260506160621 | 58 | 5 | 1.0 | 3.0 | 0.00 | 0.00 | 0.00 | 73 | 1027.9 |
| 20260506160220 | 57 | 10 | 2.0 | 3.0 | 0.00 | 0.00 | 0.00 | 74 | 1027.9 |
| 20260506155820 | 57 | 353 | 2.0 | 4.0 | 0.00 | 0.00 | 0.00 | 74 | 1027.9 |
| 20260506155419 | 56 | 5 | 3.0 | 4.0 | 0.00 | 0.00 | 0.00 | 74 | 1027.9 |
| 20260506155018 | 56 | 330 | 2.0 | 3.0 | 0.00 | 0.00 | 0.00 | 75 | 1028.0 |
| 20260506154617 | 55 | 0 | 2.0 | 5.0 | 0.00 | 0.00 | 0.00 | 75 | 1027.9 |
| 20260506154216 | 55 | 5 | 1.0 | 4.0 | 0.00 | 0.00 | 0.00 | 75 | 1027.9 |
| 20260506153815 | 55 | 336 | 2.0 | 5.0 | 0.00 | 0.00 | 0.00 | 75 | 1027.8 |
| 20260506153414 | 54 | 297 | 3.0 | 5.0 | 0.00 | 0.00 | 0.00 | 74 | 1027.7 |
| 20260506153013 | 54 | 315 | 2.0 | 5.0 | 0.00 | 0.00 | 0.00 | 75 | 1027.7 |
| 20260506152612 | 54 | 0 | 4.0 | 5.0 | 0.00 | 0.00 | 0.00 | 75 | 1027.6 |
| 20260506152211 | 54 | 328 | 3.0 | 6.0 | 0.00 | 0.00 | 0.00 | 75 | 1027.6 |
| 20260506151810 | 54 | 338 | 1.0 | 5.0 | 0.00 | 0.00 | 0.00 | 76 | 1027.7 |
| 20260506151409 | 54 | 352 | 3.0 | 6.0 | 0.00 | 0.00 | 0.00 | 77 | 1027.7 |
| 20260506151008 | 54 | 348 | 3.0 | 5.0 | 0.00 | 0.00 | 0.00 | 77 | 1027.7 |
| 20260506150607 | 54 | 357 | 3.0 | 5.0 | 0.00 | 0.00 | 0.00 | 78 | 1027.7 |
| 20260506150206 | 53 | 309 | 3.0 | 4.0 | 0.00 | 0.00 | 0.00 | 79 | 1027.8 |
| 20260506145805 | 53 | 4 | 1.0 | 3.0 | 0.00 | 0.00 | 0.00 | 79 | 1027.7 |
| 20260506145405 | 53 | 0 | 2.0 | 6.0 | 0.00 | 0.00 | 0.00 | 78 | 1027.6 |
| 20260506145004 | 53 | 325 | 2.0 | 4.0 | 0.00 | 0.00 | 0.00 | 79 | 1027.6 |
| 20260506144603 | 53 | 0 | 1.0 | 4.0 | 0.00 | 0.00 | 0.00 | 80 | 1027.8 |
| 20260506144202 | 52 | 346 | 1.0 | 4.0 | 0.00 | 0.00 | 0.00 | 80 | 1027.6 |
| 20260506143801 | 52 | 356 | 1.0 | 2.0 | 0.00 | 0.00 | 0.00 | 81 | 1027.6 |
| 20260506143400 | 52 | 358 | 2.0 | 3.0 | 0.00 | 0.00 | 0.00 | 81 | 1027.7 |
| 20260506142959 | 52 | 357 | 0.0 | 4.0 | 0.00 | 0.00 | 0.00 | 82 | 1027.7 |
| 20260506142558 | 52 | 346 | 2.0 | 4.0 | 0.00 | 0.00 | 0.00 | 83 | 1027.6 |
| 20260506142157 | 51 | 324 | 1.0 | 2.0 | 0.00 | 0.00 | 0.00 | 84 | 1027.7 |
| 20260506141756 | 51 | 317 | 1.0 | 1.0 | 0.00 | 0.00 | 0.00 | 84 | 1027.6 |
| 20260506141355 | 50 | 342 | 0.0 | 3.0 | 0.00 | 0.00 | 0.00 | 85 | 1027.7 |
| 20260506140954 | 50 | 346 | 0.0 | 3.0 | 0.00 | 0.00 | 0.00 | 85 | 1027.7 |
| 20260506140554 | 49 | 356 | 0.0 | 3.0 | 0.00 | 0.00 | 0.00 | 85 | 1027.7 |
| 20260506140153 | 49 | 10 | 1.0 | 5.0 | 0.00 | 0.00 | 0.00 | 85 | 1027.5 |
| 20260506135752 | 48 | 320 | 3.0 | 3.0 | 0.00 | 0.00 | 0.00 | 86 | 1027.5 |
| 20260506135351 | 48 | 341 | 1.0 | 4.0 | 0.00 | 0.00 | 0.00 | 86 | 1027.5 |
| 20260506134950 | 47 | 325 | 2.0 | 4.0 | 0.00 | 0.00 | 0.00 | 86 | 1027.3 |
| 20260506134549 | 47 | 321 | 1.0 | 4.0 | 0.00 | 0.00 | 0.00 | 86 | 1027.4 |
| 20260506134148 | 47 | 339 | 1.0 | 2.0 | 0.00 | 0.00 | 0.00 | 86 | 1027.3 |
| 20260506133747 | 46 | 327 | 0.0 | 2.0 | 0.00 | 0.00 | 0.00 | 86 | 1027.3 |
| 20260506133346 | 46 | 349 | 1.0 | 3.0 | 0.00 | 0.00 | 0.00 | 86 | 1027.4 |
| 20260506132945 | 45 | 323 | 0.0 | 3.0 | 0.00 | 0.00 | 0.00 | 86 | 1027.3 |
| 20260506132544 | 45 | 304 | 1.0 | 3.0 | 0.00 | 0.00 | 0.00 | 86 | 1027.3 |
| 20260506132143 | 45 | 312 | 1.0 | 2.0 | 0.00 | 0.00 | 0.00 | 86 | 1027.2 |
| 20260506131744 | 45 | 308 | 1.0 | 4.0 | 0.00 | 0.00 | 0.00 | 86 | 1027.3 |
| 20260506131341 | 45 | 337 | 1.0 | 5.0 | 0.00 | 0.00 | 0.00 | 86 | 1027.1 |
| 20260506130940 | 45 | 354 | 3.0 | 3.0 | 0.00 | 0.00 | 0.00 | 86 | 1027.1 |
| 20260506130539 | 45 | 347 | 2.0 | 3.0 | 0.00 | 0.00 | 0.00 | 86 | 1027.2 |
| 20260506130139 | 45 | 337 | 1.0 | 2.0 | 0.00 | 0.00 | 0.00 | 86 | 1027.2 |
| 20260506125738 | 45 | 330 | 2.0 | 4.0 | 0.00 | 0.00 | 0.00 | 86 | 1027.1 |
| 20260506125337 | 45 | 346 | 4.0 | 6.0 | 0.00 | 0.00 | 0.00 | 86 | 1027.0 |
| 20260506124936 | 45 | 341 | 3.0 | 4.0 | 0.00 | 0.00 | 0.00 | 86 | 1027.1 |
| 20260506124535 | 45 | 329 | 2.0 | 5.0 | 0.00 | 0.00 | 0.00 | 86 | 1027.1 |
| 20260506124134 | 45 | 330 | 2.0 | 5.0 | 0.00 | 0.00 | 0.00 | 86 | 1027.0 |
| 20260506123733 | 45 | 279 | 2.0 | 4.0 | 0.00 | 0.00 | 0.00 | 86 | 1027.0 |
| 20260506123332 | 45 | 337 | 2.0 | 6.0 | 0.00 | 0.00 | 0.00 | 86 | 1026.9 |
| 20260506122931 | 45 | 308 | 3.0 | 7.0 | 0.00 | 0.00 | 0.00 | 86 | 1026.9 |
| 20260506122530 | 45 | 322 | 4.0 | 6.0 | 0.00 | 0.00 | 0.00 | 86 | 1027.0 |
| 20260506122129 | 45 | 344 | 5.0 | 6.0 | 0.00 | 0.00 | 0.00 | 85 | 1027.0 |
| 20260506121728 | 45 | 12 | 2.0 | 4.0 | 0.00 | 0.00 | 0.00 | 85 | 1027.0 |
| 20260506121327 | 45 | 322 | 1.0 | 3.0 | 0.00 | 0.00 | 0.00 | 85 | 1027.0 |
| 20260506120927 | 45 | 310 | 2.0 | 3.0 | 0.00 | 0.00 | 0.00 | 85 | 1026.9 |
| 20260506120527 | 45 | 348 | 1.0 | 3.0 | 0.00 | 0.00 | 0.00 | 85 | 1027.0 |
| 20260506120125 | 45 | 352 | 1.0 | 3.0 | 0.00 | 0.00 | 0.00 | 85 | 1027.0 |
| 20260506115724 | 45 | 323 | 2.0 | 4.0 | 0.00 | 0.00 | 0.00 | 85 | 1027.0 |
| 20260506115323 | 45 | 297 | 1.0 | 4.0 | 0.00 | 0.00 | 0.00 | 85 | 1027.0 |
| 20260506114922 | 45 | 350 | 1.0 | 2.0 | 0.00 | 0.00 | 0.00 | 85 | 1026.9 |
| 20260506114521 | 45 | 40 | 1.0 | 3.0 | 0.00 | 0.00 | 0.00 | 85 | 1027.0 |
| 20260506114120 | 45 | 265 | 2.0 | 3.0 | 0.00 | 0.00 | 0.00 | 85 | 1026.9 |
| 20260506113719 | 45 | 326 | 3.0 | 3.0 | 0.00 | 0.00 | 0.00 | 85 | 1026.9 |
| 20260506113318 | 45 | 280 | 3.0 | 3.0 | 0.00 | 0.00 | 0.00 | 85 | 1026.9 |
| 20260506112917 | 45 | 302 | 2.0 | 3.0 | 0.00 | 0.00 | 0.00 | 85 | 1026.9 |
| 20260506112516 | 45 | 286 | 2.0 | 2.0 | 0.00 | 0.00 | 0.00 | 85 | 1026.9 |
| 20260506112115 | 45 | 297 | 1.0 | 2.0 | 0.00 | 0.00 | 0.00 | 85 | 1026.9 |
| 20260506111716 | 45 | 322 | 2.0 | 4.0 | 0.00 | 0.00 | 0.00 | 85 | 1026.9 |
| 20260506111313 | 46 | 324 | 2.0 | 4.0 | 0.00 | 0.00 | 0.00 | 85 | 1026.8 |
| 20260506110913 | 46 | 263 | 1.0 | 4.0 | 0.00 | 0.00 | 0.00 | 85 | 1026.8 |
| 20260506110512 | 46 | 328 | 2.0 | 5.0 | 0.00 | 0.00 | 0.00 | 85 | 1026.8 |
| 20260506110111 | 46 | 322 | 5.0 | 5.0 | 0.00 | 0.00 | 0.00 | 85 | 1026.7 |
| 20260506105710 | 46 | 347 | 3.0 | 5.0 | 0.00 | 0.00 | 0.00 | 85 | 1026.7 |
| 20260506105309 | 46 | 350 | 4.0 | 7.0 | 0.00 | 0.00 | 0.00 | 85 | 1026.7 |
| 20260506104908 | 46 | 356 | 6.0 | 9.0 | 0.00 | 0.00 | 0.00 | 85 | 1026.7 |
| 20260506104507 | 46 | 0 | 6.0 | 7.0 | 0.00 | 0.00 | 0.00 | 85 | 1026.6 |
| 20260506104106 | 46 | 338 | 2.0 | 3.0 | 0.00 | 0.00 | 0.00 | 85 | 1026.8 |
| 20260506103705 | 46 | 349 | 3.0 | 4.0 | 0.00 | 0.00 | 0.00 | 85 | 1026.8 |
| 20260506103304 | 45 | 345 | 3.0 | 6.0 | 0.00 | 0.00 | 0.00 | 85 | 1026.7 |
| 20260506102903 | 45 | 357 | 3.0 | 5.0 | 0.00 | 0.00 | 0.00 | 85 | 1026.6 |
| 20260506102502 | 45 | 349 | 3.0 | 4.0 | 0.00 | 0.00 | 0.00 | 85 | 1026.6 |
| 20260506102101 | 45 | 349 | 2.0 | 3.0 | 0.00 | 0.00 | 0.00 | 85 | 1026.7 |
| 20260506101701 | 45 | 324 | 2.0 | 5.0 | 0.00 | 0.00 | 0.00 | 85 | 1026.7 |
| 20260506101300 | 45 | 351 | 2.0 | 5.0 | 0.00 | 0.00 | 0.00 | 85 | 1026.7 |
| 20260506100859 | 45 | 350 | 2.0 | 4.0 | 0.00 | 0.00 | 0.00 | 85 | 1026.7 |
| 20260506100458 | 45 | 347 | 2.0 | 4.0 | 0.00 | 0.00 | 0.00 | 85 | 1026.8 |
| 20260506100057 | 45 | 331 | 3.0 | 4.0 | 0.00 | 0.00 | 0.00 | 84 | 1026.7 |
| 20260506095656 | 45 | 319 | 2.0 | 5.0 | 0.00 | 0.00 | 0.00 | 84 | 1026.7 |
| 20260506095255 | 46 | 326 | 1.0 | 5.0 | 0.00 | 0.00 | 0.00 | 84 | 1026.7 |
| 20260506094854 | 46 | 331 | 2.0 | 3.0 | 0.00 | 0.00 | 0.00 | 84 | 1026.6 |
| 20260506094453 | 46 | 325 | 3.0 | 5.0 | 0.00 | 0.00 | 0.00 | 84 | 1026.7 |
| 20260506094052 | 46 | 348 | 3.0 | 5.0 | 0.00 | 0.00 | 0.00 | 84 | 1026.7 |
| 20260506093651 | 46 | 353 | 3.0 | 8.0 | 0.00 | 0.00 | 0.00 | 84 | 1026.7 |
| 20260506093250 | 46 | 342 | 4.0 | 8.0 | 0.00 | 0.00 | 0.00 | 84 | 1026.7 |
| 20260506092850 | 46 | 2 | 5.0 | 7.0 | 0.00 | 0.00 | 0.00 | 84 | 1026.7 |
| 20260506092449 | 46 | 347 | 6.0 | 6.0 | 0.00 | 0.00 | 0.00 | 84 | 1026.8 |
| 20260506092047 | 46 | 351 | 5.0 | 5.0 | 0.00 | 0.00 | 0.00 | 84 | 1026.8 |
| 20260506091647 | 46 | 51 | 2.0 | 7.0 | 0.00 | 0.00 | 0.00 | 84 | 1026.8 |
| 20260506091246 | 46 | 348 | 4.0 | 6.0 | 0.00 | 0.00 | 0.00 | 85 | 1026.8 |
| 20260506090845 | 46 | 350 | 4.0 | 8.0 | 0.00 | 0.00 | 0.00 | 85 | 1026.7 |
| 20260506090444 | 46 | 350 | 8.0 | 8.0 | 0.00 | 0.00 | 0.00 | 85 | 1026.8 |
| 20260506090043 | 46 | 326 | 4.0 | 7.0 | 0.00 | 0.00 | 0.00 | 85 | 1026.8 |
| 20260506085645 | 46 | 312 | 1.0 | 7.0 | 0.00 | 0.00 | 0.00 | 85 | 1026.8 |
| 20260506085642 | 46 | 312 | 1.0 | 7.0 | 0.00 | 0.00 | 0.00 | 85 | 1026.8 |
| 20260506085241 | 45 | 339 | 5.0 | 6.0 | 0.00 | 0.00 | 0.00 | 85 | 1026.8 |
| 20260506084840 | 45 | 26 | 1.0 | 8.0 | 0.00 | 0.00 | 0.00 | 85 | 1026.9 |
| 20260506084439 | 45 | 221 | 1.0 | 4.0 | 0.00 | 0.00 | 0.00 | 85 | 1027.0 |
| 20260506084038 | 46 | 156 | 1.0 | 4.0 | 0.00 | 0.00 | 0.00 | 85 | 1027.0 |
| 20260506083637 | 46 | 312 | 4.0 | 4.0 | 0.00 | 0.00 | 0.00 | 85 | 1026.9 |
| 20260506083236 | 46 | 90 | 2.0 | 6.0 | 0.00 | 0.00 | 0.00 | 85 | 1026.9 |
| 20260506082835 | 46 | 290 | 2.0 | 4.0 | 0.00 | 0.00 | 0.00 | 85 | 1027.0 |
| 20260506082435 | 46 | 279 | 1.0 | 5.0 | 0.00 | 0.00 | 0.00 | 85 | 1026.9 |
| 20260506082034 | 46 | 321 | 3.0 | 3.0 | 0.00 | 0.00 | 0.00 | 85 | 1027.0 |
| 20260506081633 | 46 | 295 | 2.0 | 4.0 | 0.00 | 0.00 | 0.00 | 85 | 1027.0 |
| 20260506081232 | 46 | 289 | 1.0 | 5.0 | 0.00 | 0.00 | 0.00 | 85 | 1027.0 |
| 20260506080831 | 46 | 324 | 2.0 | 5.0 | 0.00 | 0.00 | 0.00 | 85 | 1026.9 |
| 20260506080654 | 46 | 299 | 1.0 | 4.0 | 0.00 | 0.00 | 0.00 | 85 | 1026.9 |
| 20260506080430 | 46 | 299 | 1.0 | 4.0 | 0.00 | 0.00 | 0.00 | 85 | 1026.9 |
| 20260506073223 | 46 | 288 | 5.0 | 8.0 | 0.00 | 0.00 | 0.00 | 86 | 1026.9 |
| 20260506072822 | 46 | 334 | 7.0 | 9.0 | 0.00 | 0.00 | 0.00 | 86 | 1026.8 |
| 20260506072421 | 46 | 349 | 5.0 | 7.0 | 0.00 | 0.00 | 0.00 | 87 | 1026.8 |
| 20260506072020 | 46 | 351 | 3.0 | 6.0 | 0.00 | 0.00 | 0.00 | 87 | 1026.9 |
| 20260506071622 | 46 | 346 | 4.0 | 6.0 | 0.00 | 0.00 | 0.00 | 88 | 1026.8 |
| 20260506071619 | 46 | 346 | 4.0 | 6.0 | 0.00 | 0.00 | 0.00 | 88 | 1026.8 |
| 20260506071218 | 46 | 319 | 3.0 | 7.0 | 0.00 | 0.00 | 0.00 | 88 | 1026.7 |
| 20260506070817 | 46 | 301 | 4.0 | 7.0 | 0.00 | 0.00 | 0.00 | 88 | 1026.7 |
| 20260506070416 | 46 | 320 | 1.0 | 7.0 | 0.00 | 0.00 | 0.00 | 88 | 1026.7 |
| 20260506062407 | 45 | 41 | 2.0 | 9.0 | 0.00 | 0.00 | 0.00 | 90 | 1026.4 |
| 20260506062006 | 45 | 2 | 3.0 | 9.0 | 0.00 | 0.00 | 0.00 | 90 | 1026.4 |
| 20260506061605 | 45 | 313 | 4.0 | 6.0 | 0.00 | 0.00 | 0.00 | 90 | 1026.4 |
| 20260506061204 | 45 | 314 | 4.0 | 6.0 | 0.00 | 0.00 | 0.00 | 90 | 1026.5 |
| 20260506060803 | 45 | 140 | 2.0 | 4.0 | 0.00 | 0.00 | 0.00 | 90 | 1026.4 |
| 20260506060402 | 45 | 273 | 2.0 | 5.0 | 0.00 | 0.00 | 0.00 | 90 | 1026.4 |
| 20260506051150 | 45 | 335 | 3.0 | 6.0 | 0.00 | 0.00 | 0.00 | 91 | 1026.1 |
| 20260506050749 | 45 | 317 | 1.0 | 5.0 | 0.00 | 0.00 | 0.00 | 91 | 1026.1 |
| 20260506050348 | 45 | 351 | 1.0 | 5.0 | 0.00 | 0.00 | 0.00 | 91 | 1026.1 |
| 20260506044744 | 45 | 248 | 1.0 | 4.0 | 0.00 | 0.00 | 0.00 | 90 | 1025.9 |
| 20260506044343 | 45 | 356 | 3.0 | 3.0 | 0.00 | 0.00 | 0.00 | 90 | 1026.0 |
| 20260506043943 | 45 | 306 | 0.0 | 5.0 | 0.00 | 0.00 | 0.00 | 89 | 1026.0 |
| 20260506043542 | 45 | 351 | 2.0 | 5.0 | 0.00 | 0.00 | 0.00 | 89 | 1025.9 |
| 20260506043141 | 45 | 349 | 3.0 | 5.0 | 0.00 | 0.00 | 0.00 | 89 | 1025.9 |
| 20260506042740 | 45 | 324 | 3.0 | 4.0 | 0.00 | 0.00 | 0.00 | 89 | 1025.8 |
| 20260506042339 | 45 | 352 | 4.0 | 4.0 | 0.00 | 0.00 | 0.00 | 89 | 1025.8 |
| 20260506041938 | 45 | 320 | 2.0 | 2.0 | 0.00 | 0.00 | 0.00 | 88 | 1025.7 |
| 20260506041537 | 45 | 339 | 1.0 | 6.0 | 0.00 | 0.00 | 0.00 | 88 | 1025.8 |
| 20260506041136 | 45 | 353 | 5.0 | 6.0 | 0.00 | 0.00 | 0.00 | 88 | 1025.8 |
| 20260506040735 | 45 | 309 | 3.0 | 5.0 | 0.00 | 0.00 | 0.00 | 88 | 1025.7 |
| 20260506040334 | 46 | 323 | 3.0 | 5.0 | 0.00 | 0.00 | 0.00 | 87 | 1025.6 |
| 20260506035933 | 46 | 352 | 3.0 | 9.0 | 0.00 | 0.00 | 0.00 | 87 | 1025.5 |
| 20260506035532 | 46 | 339 | 5.0 | 7.0 | 0.00 | 0.00 | 0.00 | 86 | 1025.5 |
| 20260506035131 | 46 | 341 | 3.0 | 4.0 | 0.00 | 0.00 | 0.00 | 85 | 1025.4 |
| 20260506034731 | 46 | 84 | 1.0 | 4.0 | 0.00 | 0.00 | 0.00 | 85 | 1025.3 |
| 20260506034330 | 46 | 358 | 1.0 | 4.0 | 0.00 | 0.00 | 0.00 | 84 | 1025.2 |
| 20260506033929 | 46 | 343 | 1.0 | 4.0 | 0.00 | 0.00 | 0.00 | 84 | 1025.2 |
| 20260506033529 | 47 | 326 | 1.0 | 5.0 | 0.00 | 0.00 | 0.00 | 84 | 1025.2 |
| 20260506033127 | 47 | 350 | 3.0 | 7.0 | 0.00 | 0.00 | 0.00 | 84 | 1025.0 |
| 20260506032726 | 47 | 329 | 5.0 | 7.0 | 0.00 | 0.00 | 0.00 | 84 | 1025.0 |
| 20260506032325 | 47 | 274 | 2.0 | 7.0 | 0.00 | 0.00 | 0.00 | 84 | 1024.9 |
| 20260506031924 | 47 | 292 | 2.0 | 10.0 | 0.00 | 0.00 | 0.00 | 84 | 1024.8 |
| 20260506031523 | 47 | 285 | 5.0 | 8.0 | 0.00 | 0.00 | 0.00 | 84 | 1024.7 |
| 20260506031122 | 47 | 6 | 5.0 | 9.0 | 0.00 | 0.00 | 0.00 | 83 | 1024.6 |
| 20260506030721 | 47 | 81 | 3.0 | 6.0 | 0.00 | 0.00 | 0.00 | 83 | 1024.5 |
| 20260506030320 | 47 | 284 | 3.0 | 5.0 | 0.00 | 0.00 | 0.00 | 83 | 1024.4 |
| 20260506025919 | 48 | 173 | 2.0 | 10.0 | 0.00 | 0.00 | 0.00 | 82 | 1024.4 |
| 20260506025518 | 48 | 29 | 10.0 | 10.0 | 0.00 | 0.00 | 0.00 | 82 | 1024.2 |
| 20260506025117 | 48 | 271 | 2.0 | 10.0 | 0.00 | 0.00 | 0.00 | 82 | 1024.2 |
| 20260506024717 | 48 | 327 | 3.0 | 10.0 | 0.00 | 0.00 | 0.00 | 82 | 1024.2 |
| 20260506024316 | 48 | 13 | 2.0 | 10.0 | 0.00 | 0.00 | 0.00 | 81 | 1024.2 |
| 20260506023915 | 49 | 318 | 5.0 | 10.0 | 0.00 | 0.00 | 0.00 | 80 | 1024.4 |
| 20260506023514 | 49 | 312 | 4.0 | 7.0 | 0.00 | 0.00 | 0.00 | 79 | 1024.3 |
| 20260506023113 | 49 | 21 | 7.0 | 7.0 | 0.00 | 0.00 | 0.00 | 79 | 1024.2 |
| 20260506022715 | 49 | 278 | 4.0 | 6.0 | 0.00 | 0.00 | 0.00 | 79 | 1024.1 |
| 20260506022712 | 49 | 278 | 4.0 | 6.0 | 0.00 | 0.00 | 0.00 | 79 | 1024.1 |
| 20260506022311 | 49 | 273 | 4.0 | 6.0 | 0.00 | 0.00 | 0.00 | 79 | 1024.0 |
| 20260506021910 | 50 | 253 | 2.0 | 8.0 | 0.00 | 0.00 | 0.00 | 78 | 1024.0 |
| 20260506021509 | 50 | 317 | 5.0 | 8.0 | 0.00 | 0.00 | 0.00 | 78 | 1024.0 |
| 20260506021108 | 51 | 309 | 4.0 | 10.0 | 0.00 | 0.00 | 0.00 | 77 | 1024.1 |
| 20260506020707 | 51 | 318 | 2.0 | 7.0 | 0.00 | 0.00 | 0.00 | 77 | 1024.2 |
| 20260506020306 | 51 | 355 | 3.0 | 6.0 | 0.00 | 0.00 | 0.00 | 76 | 1024.1 |
| 20260506015905 | 51 | 33 | 3.0 | 6.0 | 0.00 | 0.00 | 0.00 | 76 | 1024.1 |
| 20260506015505 | 52 | 266 | 3.0 | 7.0 | 0.00 | 0.00 | 0.00 | 76 | 1024.2 |
| 20260506015104 | 52 | 12 | 1.0 | 7.0 | 0.00 | 0.00 | 0.00 | 76 | 1024.2 |
| 20260506014703 | 52 | 261 | 6.0 | 8.0 | 0.00 | 0.00 | 0.00 | 76 | 1024.1 |
| 20260506014302 | 52 | 47 | 4.0 | 5.0 | 0.00 | 0.00 | 0.00 | 76 | 1024.1 |
| 20260506013901 | 52 | 41 | 3.0 | 4.0 | 0.00 | 0.00 | 0.00 | 76 | 1024.1 |
| 20260506013500 | 52 | 45 | 2.0 | 4.0 | 0.00 | 0.00 | 0.00 | 75 | 1024.0 |
| 20260506013059 | 53 | 137 | 2.0 | 5.0 | 0.00 | 0.00 | 0.00 | 75 | 1024.1 |
| 20260506012658 | 53 | 14 | 4.0 | 6.0 | 0.00 | 0.00 | 0.00 | 75 | 1024.0 |
| 20260506012413 | 53 | 53 | 2.0 | 6.0 | 0.00 | 0.00 | 0.00 | 75 | 1024.1 |
| 20260506012257 | 53 | 53 | 2.0 | 6.0 | 0.00 | 0.00 | 0.00 | 75 | 1024.1 |
| 20260506011856 | 53 | 325 | 4.0 | 5.0 | 0.00 | 0.00 | 0.00 | 75 | 1024.0 |
| 20260506011455 | 53 | 309 | 3.0 | 4.0 | 0.00 | 0.00 | 0.00 | 75 | 1024.0 |
| 20260506011054 | 53 | 256 | 2.0 | 4.0 | 0.00 | 0.00 | 0.00 | 75 | 1024.0 |
| 20260506010653 | 53 | 259 | 3.0 | 4.0 | 0.00 | 0.00 | 0.00 | 75 | 1024.1 |
| 20260506010252 | 53 | 323 | 4.0 | 5.0 | 0.00 | 0.00 | 0.00 | 75 | 1024.0 |
| 20260506005851 | 53 | 267 | 3.0 | 8.0 | 0.00 | 0.00 | 0.00 | 75 | 1024.1 |
| 20260506005451 | 53 | 322 | 3.0 | 6.0 | 0.00 | 0.00 | 0.00 | 75 | 1024.0 |
| 20260506005050 | 52 | 33 | 4.0 | 6.0 | 0.00 | 0.00 | 0.00 | 75 | 1023.9 |
| 20260506004649 | 52 | 317 | 5.0 | 8.0 | 0.00 | 0.00 | 0.00 | 75 | 1023.9 |
| 20260506004248 | 52 | 14 | 3.0 | 7.0 | 0.00 | 0.00 | 0.00 | 74 | 1024.0 |
| 20260506003847 | 52 | 318 | 6.0 | 7.0 | 0.00 | 0.00 | 0.00 | 74 | 1023.7 |
| 20260506003446 | 52 | 67 | 2.0 | 6.0 | 0.00 | 0.00 | 0.00 | 74 | 1023.9 |
| 20260506003045 | 52 | 39 | 2.0 | 4.0 | 0.00 | 0.00 | 0.00 | 74 | 1023.9 |
| 20260506002644 | 53 | 328 | 1.0 | 4.0 | 0.00 | 0.00 | 0.00 | 74 | 1024.0 |
| 20260506002243 | 53 | 171 | 2.0 | 6.0 | 0.00 | 0.00 | 0.00 | 74 | 1023.9 |
| 20260506001842 | 53 | 327 | 3.0 | 8.0 | 0.00 | 0.00 | 0.00 | 74 | 1023.9 |
| 20260506001441 | 53 | 304 | 2.0 | 6.0 | 0.00 | 0.00 | 0.00 | 74 | 1024.0 |
| 20260506001040 | 53 | 267 | 3.0 | 7.0 | 0.00 | 0.00 | 0.00 | 74 | 1023.8 |
| 20260506000639 | 53 | 180 | 2.0 | 11.0 | 0.00 | 0.00 | 0.00 | 75 | 1023.7 |
| 20260505235838 | 52 | 273 | 5.0 | 9.0 | 0.00 | 0.00 | 0.00 | 74 | 1023.6 |
| 20260505235437 | 53 | 237 | 3.0 | 9.0 | 0.00 | 0.00 | 0.00 | 74 | 1023.6 |
| 20260505235036 | 53 | 327 | 7.0 | 9.0 | 0.00 | 0.00 | 0.00 | 74 | 1023.6 |
| 20260505234635 | 53 | 320 | 2.0 | 9.0 | 0.00 | 0.00 | 0.00 | 74 | 1023.7 |
| 20260505234234 | 53 | 18 | 5.0 | 10.0 | 0.00 | 0.00 | 0.00 | 74 | 1023.6 |
| 20260505233833 | 53 | 352 | 3.0 | 10.0 | 0.00 | 0.00 | 0.00 | 74 | 1023.7 |
| 20260505233031 | 53 | 332 | 4.0 | 9.0 | 0.00 | 0.00 | 0.00 | 74 | 1023.6 |
| 20260505232630 | 53 | 319 | 3.0 | 8.0 | 0.00 | 0.00 | 0.00 | 73 | 1023.6 |
| 20260505232229 | 54 | 323 | 8.0 | 8.0 | 0.00 | 0.00 | 0.00 | 73 | 1023.6 |
| 20260505231828 | 54 | 17 | 4.0 | 6.0 | 0.00 | 0.00 | 0.00 | 73 | 1023.4 |
| 20260505231427 | 54 | 5 | 2.0 | 9.0 | 0.00 | 0.00 | 0.00 | 72 | 1023.5 |
| 20260505231026 | 55 | 56 | 3.0 | 6.0 | 0.00 | 0.00 | 0.00 | 72 | 1023.5 |
| 20260505230625 | 55 | 337 | 4.0 | 6.0 | 0.00 | 0.00 | 0.00 | 72 | 1023.7 |
| 20260505230225 | 56 | 273 | 3.0 | 8.0 | 0.00 | 0.00 | 0.00 | 72 | 1023.7 |
| 20260505225824 | 56 | 306 | 2.0 | 6.0 | 0.00 | 0.00 | 0.00 | 72 | 1023.6 |
| 20260505225423 | 56 | 133 | 2.0 | 10.0 | 0.00 | 0.00 | 0.00 | 72 | 1023.8 |
| 20260505225023 | 56 | 274 | 4.0 | 6.0 | 0.00 | 0.00 | 0.00 | 72 | 1023.8 |
| 20260505224621 | 56 | 27 | 4.0 | 5.0 | 0.00 | 0.00 | 0.00 | 73 | 1023.8 |
| 20260505224220 | 56 | 36 | 1.0 | 8.0 | 0.00 | 0.00 | 0.00 | 72 | 1023.8 |
| 20260505223819 | 56 | 352 | 1.0 | 7.0 | 0.00 | 0.00 | 0.00 | 72 | 1023.9 |
| 20260505223419 | 56 | 326 | 3.0 | 5.0 | 0.00 | 0.00 | 0.00 | 72 | 1023.8 |
| 20260505223018 | 56 | 5 | 1.0 | 6.0 | 0.00 | 0.00 | 0.00 | 72 | 1023.8 |
| 20260505221815 | 56 | 29 | 1.0 | 5.0 | 0.00 | 0.00 | 0.00 | 73 | 1024.0 |
| 20260505221414 | 56 | 38 | 4.0 | 6.0 | 0.00 | 0.00 | 0.00 | 74 | 1024.0 |
| 20260505221013 | 56 | 3 | 5.0 | 6.0 | 0.00 | 0.00 | 0.00 | 73 | 1023.9 |
| 20260505220613 | 55 | 6 | 4.0 | 4.0 | 0.00 | 0.00 | 0.00 | 74 | 1024.1 |
| 20260505220212 | 55 | 337 | 2.0 | 5.0 | 0.00 | 0.00 | 0.00 | 74 | 1024.0 |
| 20260505215811 | 55 | 11 | 2.0 | 5.0 | 0.00 | 0.00 | 0.00 | 74 | 1024.1 |
| 20260505215410 | 55 | 262 | 3.0 | 6.0 | 0.00 | 0.00 | 0.00 | 74 | 1024.1 |
| 20260505215009 | 54 | 319 | 2.0 | 4.0 | 0.00 | 0.00 | 0.00 | 74 | 1024.2 |
| 20260505214608 | 54 | 317 | 1.0 | 4.0 | 0.00 | 0.00 | 0.00 | 74 | 1024.3 |
| 20260505214207 | 54 | 27 | 2.0 | 4.0 | 0.00 | 0.00 | 0.00 | 74 | 1024.3 |
| 20260505213806 | 54 | 298 | 2.0 | 3.0 | 0.00 | 0.00 | 0.00 | 74 | 1024.4 |
| 20260505213405 | 54 | 326 | 1.0 | 3.0 | 0.00 | 0.00 | 0.00 | 74 | 1024.3 |
| 20260505213004 | 54 | 303 | 1.0 | 3.0 | 0.00 | 0.00 | 0.00 | 74 | 1024.4 |
| 20260505212603 | 54 | 319 | 1.0 | 9.0 | 0.00 | 0.00 | 0.00 | 74 | 1024.3 |
| 20260505212203 | 54 | 335 | 7.0 | 7.0 | 0.00 | 0.00 | 0.00 | 74 | 1024.3 |
| 20260505211801 | 54 | 327 | 1.0 | 4.0 | 0.00 | 0.00 | 0.00 | 74 | 1024.4 |
| 20260505211400 | 54 | 272 | 2.0 | 4.0 | 0.00 | 0.00 | 0.00 | 74 | 1024.3 |
| 20260505210959 | 54 | 0 | 2.0 | 6.0 | 0.00 | 0.00 | 0.00 | 74 | 1024.3 |
| 20260505210558 | 54 | 199 | 1.0 | 6.0 | 0.00 | 0.00 | 0.00 | 73 | 1024.4 |
| 20260505210158 | 54 | 34 | 1.0 | 6.0 | 0.00 | 0.00 | 0.00 | 73 | 1024.3 |
| 20260505205757 | 55 | 310 | 5.0 | 8.0 | 0.00 | 0.00 | 0.00 | 73 | 1024.4 |
| 20260505205356 | 55 | 299 | 4.0 | 9.0 | 0.00 | 0.00 | 0.00 | 73 | 1024.3 |
| 20260505204955 | 55 | 302 | 3.0 | 9.0 | 0.00 | 0.00 | 0.00 | 73 | 1024.4 |
| 20260505204153 | 56 | 317 | 3.0 | 6.0 | 0.00 | 0.00 | 0.00 | 73 | 1024.2 |